Lexington Weather

Lexington, Massachusetts, USA

56°F
6/23/2021 2:17am 
  • Lexington Conditions: Partly cloudy
  • Temperature: 56.1°F / 13.4°CColder 2.4°F than last hour.
  • Dew Point: 54.1°FDecreased 2.9°Fsince last hour.
  • Relative Humidity: 93%Decreased 2.0% since last hour.
  • Wind: Calm, 10-min avg: Calm, gust: None
  • Barometer: 29.83 in Steady
  • Visibility: 10 miles
  • Rain Today: 0.00 in
  •   

Regional Weather Roundup
for Boston / Norton, MA

        
000
ASUS41 KBOX 160904
RWRBOX

REGIONAL WEATHER ROUNDUP
NATIONAL WEATHER SERVICE BOSTON/NORTON MA
500 AM EDT WED JUN 16 2021

NOTE:  "FAIR" INDICATES FEW OR NO CLOUDS BELOW 12,000 FEET WITH NO 
SIGNIFICANT WEATHER AND/OR OBSTRUCTIONS TO VISIBILITY.

MAZALL-161000-
EASTERN MASSACHUSETTS
  
CITY           SKY/WX    TMP DP  RH WIND       PRES   REMARKS
BOSTON         PTCLDY    64  53  67 NW10      29.69S                  
BEVERLY        CLEAR     59  57  93 NW8       29.68S                  
LAWRENCE       CLEAR     58  54  86 NW3       29.72R                  
BEDFORD        MOCLDY    57  55  93 W5        29.70R                  
BLUE HILL        N/A     58  55  90 NW15      29.68F                  
NORWOOD        CLEAR     60  55  83 NW5       29.69S                  
MARSHFIELD     CLEAR    -40 N/A N/A VRB5      29.68S WCI -57          
PLYMOUTH       CLEAR     59  58  96 NW6       29.68R                  
TAUNTON        FOG       55  54  96 CALM      29.68S VSB 3/4          
NEW BEDFORD    CLEAR     61  57  87 NW6       29.67F                  
$$

MAZALL-161000-
CAPE COD AND THE ISLANDS
  
CITY           SKY/WX    TMP DP  RH WIND       PRES   REMARKS
FALMOUTH       CLEAR     61  61 100 NW8       29.67S                  
HYANNIS        CLEAR     63  61  93 NW7       29.65R                  
CHATHAM        PTCLDY    63  61  93 VRB5      29.66S                  
PROVINCETOWN   CLEAR     61  60  97 NW10      29.68R                  
NANTUCKET      CLEAR     66  61  84 NW8       29.66R                  
MARTHAS VNYRD  CLEAR     62  59  90 MISG        N/A                   
$$
 
MAZALL-161000-
CENTRAL AND WESTERN MASSACHUSETTS
  
CITY           SKY/WX    TMP DP  RH WIND       PRES   REMARKS
WORCESTER      PTCLDY    57  51  80 NW14      29.74R                  
FITCHBURG      PTCLDY    59  48  67 NW7       29.73R                  
ORANGE         CLEAR     55  51  86 NW5       29.77R                  
SPRINGFIELD    CLEAR     56  51  84 N7        29.74R                  
WESTFIELD      CLEAR     59  50  72 NW13      29.76R                  
NORTH ADAMS    PTCLDY    52  48  86 N3        29.81R                  
PITTSFIELD     CLEAR     52  48  86 NW8       29.80R                  
$$
 
RIZALL-161000-
RHODE ISLAND
  
CITY           SKY/WX    TMP DP  RH WIND       PRES   REMARKS
PROVIDENCE     CLEAR     63  57  81 N5        29.70R                  
NEWPORT        CLEAR     61  57  87 N9        29.69S                  
BLOCK ISLAND   CLEAR     59  56  89 NW6       29.71R                  
SMITHFIELD     FOG       58  58 100 NW7       29.70F VSB 1            
WESTERLY       CLEAR     59  55  87 N7        29.70S                  
$$
 
CTZALL-161000-
CONNECTICUT
  
CITY           SKY/WX    TMP DP  RH WIND       PRES   REMARKS
BRADLEY INTL   PTCLDY    57  49  74 NW6       29.74F                  
HARTFORD       CLEAR     61  48  62 NW7       29.74R                  
BRIDGEPORT     CLEAR     62  52  69 N10       29.74F                  
DANBURY        CLEAR     60  51  72 NW7       29.79F                  
GROTON         CLEAR     62  56  80 N12       29.69F                  
NEW HAVEN      CLEAR     63  51  65 NW7       29.74S                  
CHESTER        FAIR      61  55  82 NW10G16   29.73S                  
MERIDEN        CLEAR     61  48  62 NW9       29.75R                  
WILLIMANTIC    CLEAR     58  55  90 NW5       29.73R                  
OXFORD         CLEAR     56  53  90 NW9       29.78R                  
$$

MEZ002-015-021-024-NHZ003-005-008-011-012-014-VTZ005-008-161000-
NORTHERN NEW ENGLAND
  
CITY           SKY/WX    TMP DP  RH WIND       PRES   REMARKS
PORTLAND ME    PTCLDY    56  53  90 NW7       29.69R                  
BANGOR ME      CLOUDY    58  55  90 NW7       29.65R                  
CONCORD NH     CLEAR     54  49  83 NW6       29.72R                  
MANCHESTER NH  PTCLDY    60  48  64 NW12      29.70R                  
NASHUA NH      MOCLDY    59  51  75 NW7       29.72R                  
PORTSMOUTH NH  PTCLDY    57  56  97 NW5       29.70R                  
JAFFREY NH     CLEAR     55  48  77 CALM      29.75R                  
KEENE NH       CLEAR     52  51  97 CALM      29.77R                  
BURLINGTON VT  CLEAR     52  32  46 E5        29.83R                  
MT. WASHINGTON MOCLDY    34  28  80 NW39        N/A  WCI  18          
$$

NYZ052-076-161000-
EASTERN NEW YORK
  
CITY           SKY/WX    TMP DP  RH WIND       PRES   REMARKS
ALBANY         CLEAR     52  52 100 NW5       29.81R                  
NEW YORK CITY  PTCLDY    64  52  64 NW15      29.77F                  
$$
 
ANZALL-161000-
MARINE OBSERVATIONS
  
STATION/POSITION TIME  TEMP    WIND        PRES    VSBY  WAVE
                       AIR SEA DIR/SP/G                  HT/PER
                 (UTC) (F)     (DEG/KT/KT) (MB)    (MI)  (FT/S)
BOSTON BUOY      0850   61                 1004.7F         2/ 9
BUZZARDS BAY     0800          320/ 13/ 13 1005.8F
NANTUCKET SOUND  0840                        N/A
MASS BAY-STELLWA 0804   61     290/  6/  8 1003.4R  1 7/8  3/11
ISLE OF SHOALS   0800   59     300/ 10/ 11 1004.1R
S OF BLOCK IS    0826      64                N/A           4/ 8
$$

......................KEY.........................
  SKY/WX - SKY CONDITION/PRESENT WEATHER
  TMP    - TEMPERATURE IN FAHRENHEIT
  DWPT   - DEWPOINT IN FAHRENHEIT
  RH     - RELATIVE HUMIDITY IN PERCENT
  WIND   - DIRECTION AND SPEED IN MPH
  PRES   - MEAN SEA LEVEL PRESSURE IN INCHES OF HG
  WCI    - WIND CHILL INDEX
  VSB    - VISIBILITY IN MILES
  HX     - HEAT INDEX
  TC     - TEMPERATURE IN CELSIUS
  VRB    - VARIABLE WIND DIRECTION
  N/A    - NOT AVAILABLE
  
      

Other recent Regional Weather Roundups

Wed Jun 23, 2:04am

Wed Jun 23, 1:05am

Wed Jun 23, 12:04am

Tue Jun 22, 11:04pm

Tue Jun 22, 10:04pm

Tue Jun 22, 9:05pm

Tue Jun 22, 8:04pm

Tue Jun 22, 7:05pm

Tue Jun 22, 6:04pm

Tue Jun 22, 5:04pm

Tue Jun 22, 4:04pm

Tue Jun 22, 3:05pm

Tue Jun 22, 2:05pm

Tue Jun 22, 1:04pm

Tue Jun 22, 12:04pm

Tue Jun 22, 11:04am

Tue Jun 22, 10:04am

Tue Jun 22, 9:04am

Tue Jun 22, 8:05am

Tue Jun 22, 7:04am

Tue Jun 22, 6:04am

Tue Jun 22, 5:04am

Tue Jun 22, 4:04am

Tue Jun 22, 3:04am

Tue Jun 22, 2:04am

Tue Jun 22, 1:04am

Tue Jun 22, 12:04am

Mon Jun 21, 11:04pm

Mon Jun 21, 10:04pm

Mon Jun 21, 9:05pm

Mon Jun 21, 8:04pm

Mon Jun 21, 7:04pm

Mon Jun 21, 6:04pm

Mon Jun 21, 5:04pm

Mon Jun 21, 4:04pm

Mon Jun 21, 3:04pm

Mon Jun 21, 2:04pm

Mon Jun 21, 1:04pm

Mon Jun 21, 12:04pm

Mon Jun 21, 11:04am

Mon Jun 21, 10:04am

Mon Jun 21, 9:04am

Mon Jun 21, 8:04am

Mon Jun 21, 7:04am

Mon Jun 21, 6:04am

Mon Jun 21, 5:04am

Mon Jun 21, 4:04am

Mon Jun 21, 3:04am

Mon Jun 21, 2:04am

Mon Jun 21, 1:04am

Mon Jun 21, 12:04am

Sun Jun 20, 11:04pm

Sun Jun 20, 10:04pm

Sun Jun 20, 9:04pm

Sun Jun 20, 8:04pm

Sun Jun 20, 7:04pm

Sun Jun 20, 6:04pm

Sun Jun 20, 5:04pm

Sun Jun 20, 4:04pm

Sun Jun 20, 3:04pm

Sun Jun 20, 2:04pm

Sun Jun 20, 1:05pm

Sun Jun 20, 12:04pm

Sun Jun 20, 11:04am

Sun Jun 20, 10:04am

Sun Jun 20, 9:04am

Sun Jun 20, 8:04am

Sun Jun 20, 7:04am

Sun Jun 20, 6:04am

Sun Jun 20, 5:04am

Sun Jun 20, 4:04am

Sun Jun 20, 3:04am

Sun Jun 20, 2:04am

Sun Jun 20, 1:04am

Sun Jun 20, 12:05am

Sat Jun 19, 11:04pm

Sat Jun 19, 10:04pm

Sat Jun 19, 9:05pm

Sat Jun 19, 8:04pm

Sat Jun 19, 7:04pm

Sat Jun 19, 6:04pm

Sat Jun 19, 5:04pm

Sat Jun 19, 4:04pm

Sat Jun 19, 3:04pm

Sat Jun 19, 2:04pm

Sat Jun 19, 1:04pm

Sat Jun 19, 12:04pm

Sat Jun 19, 11:04am

Sat Jun 19, 10:04am

Sat Jun 19, 9:04am

Sat Jun 19, 8:04am

Sat Jun 19, 7:04am

Sat Jun 19, 6:04am

Sat Jun 19, 5:04am

Sat Jun 19, 4:04am

Sat Jun 19, 3:04am

Sat Jun 19, 2:04am

Sat Jun 19, 1:04am

Sat Jun 19, 12:04am

Fri Jun 18, 11:05pm

Fri Jun 18, 10:04pm

Fri Jun 18, 9:04pm

Fri Jun 18, 8:04pm

Fri Jun 18, 7:04pm

Fri Jun 18, 6:04pm

Fri Jun 18, 5:04pm

Fri Jun 18, 4:04pm

Fri Jun 18, 3:04pm

Fri Jun 18, 2:04pm

Fri Jun 18, 1:05pm

Fri Jun 18, 12:04pm

Fri Jun 18, 11:04am

Fri Jun 18, 10:05am

Fri Jun 18, 9:04am

Fri Jun 18, 8:04am

Fri Jun 18, 7:04am

Fri Jun 18, 6:04am

Fri Jun 18, 5:04am

Fri Jun 18, 4:04am

Fri Jun 18, 3:04am

Fri Jun 18, 2:04am

Fri Jun 18, 1:04am

Fri Jun 18, 12:04am

Thu Jun 17, 11:04pm

Thu Jun 17, 10:04pm

Thu Jun 17, 9:04pm

Thu Jun 17, 8:04pm

Thu Jun 17, 7:04pm

Thu Jun 17, 6:04pm

Thu Jun 17, 5:04pm

Thu Jun 17, 4:04pm

Thu Jun 17, 3:04pm

Thu Jun 17, 2:04pm

Thu Jun 17, 1:05pm

Thu Jun 17, 12:04pm

Thu Jun 17, 11:04am

Thu Jun 17, 10:05am

Thu Jun 17, 9:04am

Thu Jun 17, 8:04am

Thu Jun 17, 7:04am

Thu Jun 17, 6:04am

Thu Jun 17, 5:04am

Thu Jun 17, 4:04am

Thu Jun 17, 3:04am

Thu Jun 17, 2:04am

Thu Jun 17, 1:04am

Thu Jun 17, 12:04am

Wed Jun 16, 11:04pm

Wed Jun 16, 10:04pm

Wed Jun 16, 9:04pm

Wed Jun 16, 8:04pm

Wed Jun 16, 7:04pm

Wed Jun 16, 6:04pm

Wed Jun 16, 5:04pm

Wed Jun 16, 4:04pm

Wed Jun 16, 3:04pm

Wed Jun 16, 2:04pm

Wed Jun 16, 1:04pm

Wed Jun 16, 12:04pm

Wed Jun 16, 11:04am

Wed Jun 16, 10:04am

Wed Jun 16, 9:04am

Wed Jun 16, 8:04am

Wed Jun 16, 7:04am

Wed Jun 16, 6:04am

Wed Jun 16, 4:04am

Wed Jun 16, 3:04am

Meta data:

ID: 964efe43-d851-4d84-a076-2dac9893f28f
Link: https://api.weather.gov/products/964efe43-d851-4d84-a076-2dac9893f28f